Regional Weather Roundup
Issued by NWS

Home | Current Version | Previous Version | Text Only | Print | Product List | Glossary Off
Versions: 1 2 3 4 5 6 7 8 9 10 11 12 13 14 15 16 17 18 19 20 21 22 23 24 25 26 27 28 29 30 31 32 33 34 35 36 37 38 39 40 41 42 43 44 45 46 47 48 49 50

000
ASUS43 KBIS 281820
RWRND

NORTH DAKOTA REGIONAL WEATHER ROUNDUP
NATIONAL WEATHER SERVICE BISMARCK ND
100 PM CDT SAT MAR 28 2015

NOTE: "FAIR" INDICATES FEW OR NO CLOUDS BELOW 12,000 FEET WITH NO
SIGNIFICANT WEATHER AND/OR OBSTRUCTIONS TO VISIBILITY.


NDZ001>003-009>011-017-281900-
NORTHWEST NORTH DAKOTA

CITY           SKY/WX    TMP DP  RH WIND       PRES   REMARKS
WILLISTON      SUNNY     68  37  32 S15       29.58F
6HR MIN TEMP:  37; 6HR MAX TEMP:  68;

MINOT          SUNNY     52  36  54 S23G29    29.66F
MINOT AFB      SUNNY     51  45  79 S22       29.66F
$$

NDZ018>021-031>035-040>046-281900-
SOUTHWEST NORTH DAKOTA

CITY           SKY/WX    TMP DP  RH WIND       PRES   REMARKS
BISMARCK       SUNNY     54  34  46 S16       29.81F
6HR MIN TEMP:  28; 6HR MAX TEMP:  54;

DICKINSON      SUNNY     68  37  32 S22       29.67F
GARRISON         N/A     49  37  63 S20       29.71F
6HR MIN TEMP:  28; 6HR MAX TEMP:  49;

HETTINGER ARPT SUNNY     67  36  31 S17G26    29.75F
$$

NDZ004>008-012>016-024-026-027-054-281900-
NORTHEAST NORTH DAKOTA

CITY           SKY/WX    TMP DP  RH WIND       PRES   REMARKS
GRAND FORKS    MOSUNNY   44  28  53 S28G36    29.95F
GRND FRKS AFB  CLOUDY    43  28  56 S22G30    29.92F
DEVILS LAKE    PTSUNNY   39  32  75 S23G31    29.82F
$$

NDZ022-023-025-028>030-036>039-047>053-281900-
SOUTHEAST NORTH DAKOTA

CITY           SKY/WX    TMP DP  RH WIND       PRES   REMARKS
FARGO          MOSUNNY   47  26  44 S22G32    30.01F
6HR MIN TEMP:  26; 6HR MAX TEMP:  47;

JAMESTOWN      CLOUDY    41  34  76 S22G31    29.90F
$$



USA.gov is the U.S. government's official web portal to all federal, state and local government web resources and services.